TimeEST,TemperatureF,Dew PointF,Humidity,Sea Level PressureIn,VisibilityMPH,Wind Direction,Wind SpeedMPH,Gust SpeedMPH,PrecipitationIn,Events,Conditions,WindDirDegrees,DateUTC
12:15 AM,41.9,39.0,90,29.66,10.0,West,10.4,-,N/A,,Overcast,260,2012-12-10 05:15:00
12:35 AM,41.9,38.5,88,29.65,10.0,WSW,10.4,-,N/A,,Overcast,240,2012-12-10 05:35:00
12:54 AM,41.7,38.1,87,29.65,10.0,WSW,15.0,19.6,N/A,,Overcast,250,2012-12-10 05:54:00
1:15 AM,41.0,37.6,88,29.66,10.0,WSW,11.5,21.9,N/A,,Overcast,250,2012-12-10 06:15:00
1:34 AM,41.2,37.2,86,29.65,10.0,WSW,15.0,20.7,N/A,,Overcast,240,2012-12-10 06:34:00
1:55 AM,41.2,37.4,86,29.65,10.0,WSW,12.7,20.7,N/A,,Overcast,250,2012-12-10 06:55:00
2:14 AM,41.0,37.0,86,29.65,10.0,West,18.4,24.2,N/A,,Overcast,260,2012-12-10 07:14:00
2:35 AM,40.5,35.8,83,29.64,10.0,West,13.8,21.9,N/A,,Overcast,260,2012-12-10 07:35:00
2:55 AM,40.1,35.8,85,29.65,10.0,West,11.5,23.0,N/A,,Overcast,260,2012-12-10 07:55:00
3:14 AM,40.1,35.6,84,29.66,10.0,WSW,13.8,23.0,N/A,,Overcast,250,2012-12-10 08:14:00
3:55 AM,39.2,34.5,83,29.65,10.0,West,16.1,25.3,N/A,,Overcast,260,2012-12-10 08:55:00
4:14 AM,39.2,34.7,84,29.65,10.0,West,11.5,21.9,N/A,,Overcast,260,2012-12-10 09:14:00
4:35 AM,39.2,34.2,82,29.65,10.0,West,11.5,21.9,N/A,,Overcast,260,2012-12-10 09:35:00
4:54 AM,39.2,33.3,79,29.65,10.0,West,15.0,25.3,N/A,,Overcast,260,2012-12-10 09:54:00
5:15 AM,39.2,33.8,81,29.66,10.0,West,15.0,23.0,N/A,,Overcast,270,2012-12-10 10:15:00
5:35 AM,38.7,34.0,83,29.65,10.0,West,15.0,24.2,N/A,,Overcast,270,2012-12-10 10:35:00
5:54 AM,38.5,33.6,83,29.65,10.0,West,11.5,24.2,N/A,,Overcast,280,2012-12-10 10:54:00
6:15 AM,38.5,33.4,82,29.66,10.0,West,10.4,19.6,N/A,,Overcast,260,2012-12-10 11:15:00
6:34 AM,38.3,32.9,81,29.65,10.0,West,18.4,26.5,N/A,,Overcast,280,2012-12-10 11:34:00
6:54 AM,38.3,31.6,77,29.66,10.0,West,16.1,20.7,N/A,,Overcast,280,2012-12-10 11:54:00
7:15 AM,38.3,32.7,80,29.67,10.0,West,15.0,18.4,N/A,,Drizzle,270,2012-12-10 12:15:00
7:34 AM,37.8,32.9,83,29.67,10.0,West,11.5,20.7,N/A,,Light Drizzle,270,2012-12-10 12:34:00
8:14 AM,37.6,33.1,84,29.68,7.0,West,10.4,19.6,N/A,Rain,Light Rain,280,2012-12-10 13:14:00
8:35 AM,37.4,33.3,85,29.68,7.0,West,12.7,19.6,N/A,Rain,Light Rain,270,2012-12-10 13:35:00
8:54 AM,37.6,32.9,83,29.69,10.0,West,13.8,-,N/A,,Overcast,270,2012-12-10 13:54:00
9:15 AM,36.9,34.0,89,29.69,4.0,WNW,11.5,18.4,N/A,Rain,Light Rain,300,2012-12-10 14:15:00
9:35 AM,36.3,34.2,92,29.69,4.0,WNW,8.1,20.7,N/A,Rain,Rain,290,2012-12-10 14:35:00
9:54 AM,36.1,34.3,93,29.70,4.0,WNW,8.1,-,N/A,Rain,Rain,300,2012-12-10 14:54:00
10:15 AM,36.5,34.9,94,29.70,7.0,NW,11.5,17.3,N/A,,Light Drizzle,310,2012-12-10 15:15:00
10:34 AM,36.5,34.7,93,29.71,5.0,NW,6.9,-,N/A,Rain,Rain,310,2012-12-10 15:34:00
10:55 AM,36.5,34.2,91,29.72,10.0,NNW,6.9,17.3,N/A,Rain,Light Rain,330,2012-12-10 15:55:00
11:14 AM,36.5,34.2,91,29.72,2.5,NNW,4.6,-,N/A,Rain,Light Rain,340,2012-12-10 16:14:00
11:35 AM,36.5,34.5,93,29.72,10.0,Calm,Calm,-,N/A,,Overcast,0,2012-12-10 16:35:00
11:54 AM,36.9,34.7,92,29.72,10.0,Calm,Calm,-,N/A,,Overcast,0,2012-12-10 16:54:00
12:14 PM,36.7,34.9,93,29.71,10.0,NE,4.6,20.7,N/A,,Overcast,50,2012-12-10 17:14:00
12:35 PM,37.8,34.2,87,29.70,10.0,NNW,10.4,-,N/A,,Overcast,330,2012-12-10 17:35:00
12:54 PM,37.0,34.0,89,29.71,10.0,NNE,11.5,-,N/A,,Overcast,20,2012-12-10 17:54:00
1:14 PM,35.2,33.3,92,29.72,7.0,NE,10.4,-,N/A,,Overcast,40,2012-12-10 18:14:00
1:34 PM,36.0,33.4,91,29.71,10.0,North,9.2,-,N/A,,Overcast,10,2012-12-10 18:34:00
1:55 PM,34.3,32.0,91,29.72,3.0,North,4.6,-,N/A,Snow,Light Snow,360,2012-12-10 18:55:00
2:14 PM,34.7,33.1,94,29.72,3.0,NNW,8.1,-,N/A,Snow,Light Snow,340,2012-12-10 19:14:00
2:35 PM,34.0,32.9,96,29.73,4.0,North,8.1,-,N/A,Snow,Light Snow,350,2012-12-10 19:35:00
2:55 PM,33.3,32.2,96,29.73,4.0,North,4.6,-,N/A,Snow,Light Snow,10,2012-12-10 19:55:00
3:14 PM,33.8,32.4,94,29.73,10.0,Calm,Calm,-,N/A,,Overcast,0,2012-12-10 20:14:00
3:35 PM,35.6,31.5,85,29.73,10.0,NNW,10.4,-,N/A,,Overcast,330,2012-12-10 20:35:00
3:54 PM,35.4,29.7,80,29.74,10.0,NNW,9.2,16.1,N/A,,Overcast,340,2012-12-10 20:54:00
4:15 PM,35.1,28.2,76,29.74,10.0,NNW,8.1,-,N/A,,Overcast,340,2012-12-10 21:15:00
4:34 PM,35.1,27.1,73,29.75,10.0,NNW,9.2,16.1,N/A,,Overcast,340,2012-12-10 21:34:00
4:55 PM,35.2,27.9,74,29.76,10.0,NNW,4.6,-,N/A,,Overcast,340,2012-12-10 21:55:00
5:15 PM,35.6,28.0,74,29.77,10.0,NNW,9.2,16.1,N/A,,Overcast,340,2012-12-10 22:15:00
5:34 PM,35.6,28.0,74,29.78,10.0,North,9.2,-,N/A,,Overcast,10,2012-12-10 22:34:00
5:54 PM,35.1,27.9,75,29.78,10.0,NNE,11.5,-,N/A,,Overcast,20,2012-12-10 22:54:00
6:14 PM,34.7,28.9,79,29.80,10.0,ENE,6.9,-,N/A,,Overcast,60,2012-12-10 23:14:00
6:35 PM,33.8,29.7,85,29.81,10.0,East,4.6,-,N/A,,Overcast,80,2012-12-10 23:35:00
6:54 PM,33.1,29.1,85,29.81,10.0,ENE,3.5,-,N/A,,Overcast,60,2012-12-10 23:54:00
7:15 PM,32.5,28.8,86,29.81,10.0,ENE,3.5,-,N/A,,Overcast,70,2012-12-11 00:15:00
7:35 PM,32.5,28.2,84,29.82,10.0,Calm,Calm,-,N/A,,Overcast,0,2012-12-11 00:35:00
7:54 PM,32.4,28.2,85,29.83,10.0,Calm,Calm,-,N/A,,Overcast,0,2012-12-11 00:54:00
8:14 PM,31.6,29.8,93,29.84,1.2,North,5.8,-,N/A,Snow,Light Snow,10,2012-12-11 01:14:00
8:34 PM,31.1,29.8,95,29.85,1.5,Calm,Calm,-,N/A,Snow,Light Snow,0,2012-12-11 01:34:00
8:55 PM,30.9,29.3,94,29.86,7.0,Calm,Calm,-,N/A,Snow,Light Snow,0,2012-12-11 01:55:00
9:14 PM,31.6,30.0,94,29.86,5.0,Calm,Calm,-,N/A,Snow,Light Snow,0,2012-12-11 02:14:00
9:35 PM,31.1,29.3,93,29.86,3.0,Calm,Calm,-,N/A,Snow,Light Snow,0,2012-12-11 02:35:00
9:55 PM,30.7,29.1,94,29.87,1.5,Calm,Calm,-,N/A,Snow,Light Snow,0,2012-12-11 02:55:00
10:14 PM,31.1,29.5,94,29.87,4.0,Calm,Calm,-,N/A,Snow,Light Snow,0,2012-12-11 03:14:00
10:35 PM,31.5,29.1,91,29.88,1.5,Calm,Calm,-,N/A,Snow,Light Snow,0,2012-12-11 03:35:00
10:54 PM,30.2,28.6,94,29.89,1.0,NE,3.5,-,N/A,Snow,Snow,40,2012-12-11 03:54:00
11:15 PM,29.7,28.4,95,29.89,2.5,Calm,Calm,-,N/A,Snow,Light Snow,0,2012-12-11 04:15:00
11:35 PM,29.5,28.4,96,29.89,1.8,Calm,Calm,-,N/A,Snow,Light Snow,0,2012-12-11 04:35:00
11:54 PM,30.0,28.4,94,29.91,1.5,Calm,Calm,-,N/A,Snow,Light Snow,0,2012-12-11 04:54:00